Location: Shenandoah County Park
(38.9356°N, 78.4524°W)
Time: 23:56:28
(UTC-04:00)

Altair - Visible Passes

Search period start: 12 July 2024 00:00
Search period end: 22 July 2024 00:00
Orbit: 1502 x 1681 km, 47.2° (Epoch: 12 July)

Date Brightness Start Highest point End Pass type
(mag) Time Alt. Az. Time Alt. Az. Time Alt. Az.
12 Jul 8.1 01:07:30 10° WNW 01:16:27 54° N 01:25:33 10° E visible
12 Jul 7.4 03:12:33 10° WNW 03:21:49 88° SSW 03:31:21 10° SE visible
12 Jul 8.1 05:18:02 10° WNW 05:25:44 30° SW 05:33:40 10° S visible
12 Jul 7.9 22:36:07 10° W 22:45:13 61° NNW 22:54:20 10° ENE visible
13 Jul 8.1 00:42:14 10° WNW 00:51:10 53° N 01:00:12 10° E visible
13 Jul 7.4 02:47:21 10° WNW 02:56:37 88° NNE 03:06:06 10° ESE visible
13 Jul 8.0 04:52:40 10° WNW 05:00:37 33° SW 05:08:49 10° S visible
13 Jul 7.9 22:10:48 10° W 22:19:58 64° NNW 22:29:05 10° ENE visible
14 Jul 8.1 00:16:57 10° WNW 00:25:52 52° N 00:34:52 10° E visible
14 Jul 7.4 02:22:09 10° WNW 02:31:24 83° NNE 02:40:52 10° ESE visible
14 Jul 7.9 04:27:21 10° WNW 04:35:31 36° SW 04:43:55 10° SSE visible
14 Jul 7.9 21:45:30 10° WSW 21:54:43 66° NNW 22:03:51 10° ENE visible
14 Jul 8.1 23:51:39 10° WNW 00:00:34 51° N 00:09:32 10° E visible
15 Jul 7.4 01:56:57 10° WNW 02:06:11 79° NNE 02:15:36 10° ESE visible
15 Jul 7.7 04:02:03 10° WNW 04:10:24 40° SW 04:18:58 10° SSE visible
15 Jul 7.8 21:20:12 10° WSW 21:29:28 69° NNW 21:38:38 10° ENE visible
15 Jul 8.1 23:26:22 10° WNW 23:35:16 51° N 23:44:13 10° ENE visible
16 Jul 7.5 01:31:44 10° WNW 01:40:57 76° NNE 01:50:20 10° ESE visible
16 Jul 7.6 03:36:46 10° WNW 03:45:16 43° SW 03:54:00 10° SSE visible
16 Jul 7.8 20:54:55 10° WSW 21:04:14 72° NNW 21:13:24 10° ENE visible
16 Jul 8.2 23:01:03 10° WNW 23:09:58 51° N 23:18:53 10° ENE visible
17 Jul 7.5 01:06:32 10° WNW 01:15:43 72° NNE 01:25:03 10° ESE visible
17 Jul 7.6 03:11:30 10° WNW 03:20:09 47° SW 03:29:00 10° SSE visible
17 Jul 8.2 22:35:44 10° WNW 22:44:40 51° N 22:53:35 10° ENE visible
18 Jul 7.6 00:41:18 10° WNW 00:50:29 69° NNE 00:59:45 10° ESE visible
18 Jul 7.5 02:46:15 10° WNW 02:55:00 51° SW 02:57:28 42° S visible
18 Jul 9.0 05:05:27 - SSW 05:05:27 - SSW 04:55:10 10° WSW visible
18 Jul 8.2 22:10:25 10° W 22:19:22 51° N 22:28:17 10° ENE visible
19 Jul 7.7 00:16:06 10° WNW 00:25:14 66° NNE 00:33:02 16° E visible
19 Jul 7.4 02:21:00 10° WNW 02:29:52 55° SW 02:30:53 53° SSW visible
19 Jul 8.2 21:45:05 10° W 21:54:04 52° N 22:03:00 10° ENE visible
19 Jul 7.7 23:50:52 10° WNW 23:59:59 63° NNE 00:07:27 17° E visible
20 Jul 7.3 01:55:46 10° WNW 02:04:43 60° SW 02:05:21 59° SSW visible
20 Jul 9.1 04:03:11 10° W 04:03:14 10° W 04:03:14 10° W visible
20 Jul 8.2 21:19:45 10° W 21:28:47 53° N 21:37:43 10° ENE visible
20 Jul 7.8 23:25:37 10° WNW 23:34:42 61° NNE 23:42:19 16° E visible
21 Jul 7.3 01:30:32 10° WNW 01:39:34 65° SW 01:40:14 63° SSW visible
21 Jul 9.1 03:37:26 10° W 03:38:09 12° W 03:38:09 12° W visible
21 Jul 8.2 20:54:25 10° W 21:03:29 54° N 21:12:26 10° ENE visible
21 Jul 7.8 23:00:22 10° WNW 23:09:26 59° NNE 23:17:26 14° E visible
